Time,TemperatureF,DewpointF,PressureIn,WindDirection,WindDirectionDegrees,WindSpeedMPH,WindSpeedGustMPH,Humidity,HourlyPrecipIn,Conditions,Clouds,dailyrainin,SoftwareType,DateUTC
2013-02-21 00:12:00,15.5,14.0,29.63,WSW,252,16.0,20.0,92,0.00,,,0.00,weatherlink.com 1.10,2013-02-21 07:12:00,
2013-02-21 00:27:00,15.0,13.0,29.64,NW,310,8.0,23.0,92,0.00,,,0.00,weatherlink.com 1.10,2013-02-21 07:27:00,
2013-02-21 00:43:00,15.0,13.0,29.64,South,190,9.0,24.0,92,0.00,,,0.00,weatherlink.com 1.10,2013-02-21 07:43:00,
2013-02-21 00:58:00,15.6,14.0,29.66,West,271,2.0,22.0,92,0.00,,,0.00,weatherlink.com 1.10,2013-02-21 07:58:00,
2013-02-21 01:12:00,15.4,14.0,29.66,WSW,242,14.0,18.0,92,0.00,,,0.00,weatherlink.com 1.10,2013-02-21 08:12:00,
2013-02-21 01:28:00,15.5,14.0,29.68,SW,236,12.0,22.0,92,0.00,,,0.00,weatherlink.com 1.10,2013-02-21 08:28:00,
2013-02-21 01:43:00,15.4,14.0,29.69,West,269,5.0,11.0,92,0.00,,,0.00,weatherlink.com 1.10,2013-02-21 08:43:00,
2013-02-21 01:58:00,15.2,13.0,29.69,SW,226,4.0,19.0,91,0.00,,,0.00,weatherlink.com 1.10,2013-02-21 08:58:00,
2013-02-21 02:13:00,15.7,12.0,29.69,WSW,248,15.0,24.0,84,0.00,,,0.00,weatherlink.com 1.10,2013-02-21 09:13:00,
2013-02-21 02:28:00,17.2,13.0,29.69,West,263,9.0,17.0,84,0.00,,,0.00,weatherlink.com 1.10,2013-02-21 09:28:00,
2013-02-21 02:43:00,18.4,16.0,29.68,West,276,26.0,27.0,89,0.00,,,0.00,weatherlink.com 1.10,2013-02-21 09:43:00,
2013-02-21 02:58:00,19.0,16.0,29.69,SW,220,11.0,27.0,87,0.00,,,0.00,weatherlink.com 1.10,2013-02-21 09:58:00,
2013-02-21 03:13:00,19.5,16.0,29.69,WSW,248,16.0,25.0,87,0.00,,,0.00,weatherlink.com 1.10,2013-02-21 10:13:00,
2013-02-21 03:28:00,18.9,15.0,29.70,West,266,21.0,23.0,86,0.00,,,0.00,weatherlink.com 1.10,2013-02-21 10:28:00,
2013-02-21 03:43:00,18.8,16.0,29.70,West,266,17.0,22.0,89,0.00,,,0.00,weatherlink.com 1.10,2013-02-21 10:43:00,
2013-02-21 03:58:00,18.9,17.0,29.70,WNW,283,18.0,29.0,90,0.00,,,0.00,weatherlink.com 1.10,2013-02-21 10:58:00,
2013-02-21 04:14:00,19.3,17.0,29.69,West,280,19.0,31.0,92,0.00,,,0.00,weatherlink.com 1.10,2013-02-21 11:14:00,
2013-02-21 04:29:00,19.2,17.0,29.71,WSW,256,19.0,28.0,92,0.00,,,0.00,weatherlink.com 1.10,2013-02-21 11:29:00,
2013-02-21 04:44:00,19.0,17.0,29.71,SW,233,17.0,29.0,92,0.00,,,0.00,weatherlink.com 1.10,2013-02-21 11:44:00,
2013-02-21 04:59:00,18.8,17.0,29.73,West,274,20.0,29.0,92,0.00,,,0.00,weatherlink.com 1.10,2013-02-21 11:59:00,
2013-02-21 05:14:00,18.9,17.0,29.73,SW,224,12.0,31.0,93,0.00,,,0.00,weatherlink.com 1.10,2013-02-21 12:14:00,
2013-02-21 05:29:00,18.6,17.0,29.74,West,277,17.0,24.0,92,0.00,,,0.00,weatherlink.com 1.10,2013-02-21 12:29:00,
2013-02-21 05:44:00,19.2,18.0,29.75,NW,304,8.0,29.0,93,0.00,,,0.00,weatherlink.com 1.10,2013-02-21 12:44:00,
2013-02-21 05:59:00,19.0,17.0,29.74,WSW,257,25.0,25.0,93,0.00,,,0.00,weatherlink.com 1.10,2013-02-21 12:59:00,
2013-02-21 06:14:00,20.1,18.0,29.74,WSW,245,26.0,31.0,92,0.00,,,0.00,weatherlink.com 1.10,2013-02-21 13:14:00,
2013-02-21 06:29:00,20.7,18.0,29.75,NNE,21,7.0,26.0,90,0.00,,,0.00,weatherlink.com 1.10,2013-02-21 13:29:00,
2013-02-21 06:44:00,20.0,18.0,29.75,WSW,249,19.0,25.0,93,0.00,,,0.00,weatherlink.com 1.10,2013-02-21 13:44:00,
2013-02-21 06:59:00,20.4,19.0,29.76,SW,222,13.0,25.0,94,0.00,,,0.00,weatherlink.com 1.10,2013-02-21 13:59:00,
2013-02-21 07:14:00,20.0,18.0,29.77,WSW,242,23.0,23.0,93,0.00,,,0.00,weatherlink.com 1.10,2013-02-21 14:14:00,
2013-02-21 07:29:00,20.5,19.0,29.78,WSW,245,15.0,25.0,93,0.00,,,0.00,weatherlink.com 1.10,2013-02-21 14:29:00,
2013-02-21 07:45:00,21.3,19.0,29.79,SSW,212,12.0,28.0,92,0.00,,,0.00,weatherlink.com 1.10,2013-02-21 14:45:00,
2013-02-21 08:00:00,21.1,19.0,29.79,WSW,237,14.0,20.0,93,0.00,,,0.00,weatherlink.com 1.10,2013-02-21 15:00:00,
2013-02-21 08:15:00,21.3,20.0,29.80,WNW,287,14.0,20.0,93,0.00,,,0.00,weatherlink.com 1.10,2013-02-21 15:15:00,
2013-02-21 08:30:00,21.3,20.0,29.80,WSW,256,11.0,18.0,93,0.00,,,0.00,weatherlink.com 1.10,2013-02-21 15:30:00,
2013-02-21 08:45:00,21.4,20.0,29.80,SW,221,9.0,18.0,94,0.00,,,0.00,weatherlink.com 1.10,2013-02-21 15:45:00,
2013-02-21 09:00:00,21.7,20.0,29.80,NW,313,1.0,12.0,93,0.00,,,0.00,weatherlink.com 1.10,2013-02-21 16:00:00,
2013-02-21 09:15:00,21.9,20.0,29.80,West,280,6.0,11.0,93,0.00,,,0.00,weatherlink.com 1.10,2013-02-21 16:15:00,
2013-02-21 09:30:00,22.0,20.0,29.81,NW,318,2.0,10.0,93,0.00,,,0.00,weatherlink.com 1.10,2013-02-21 16:30:00,
2013-02-21 09:45:00,22.3,21.0,29.81,NW,322,2.0,10.0,93,0.00,,,0.00,weatherlink.com 1.10,2013-02-21 16:45:00,
2013-02-21 10:00:00,22.1,20.0,29.82,WSW,237,8.0,16.0,93,0.00,,,0.00,weatherlink.com 1.10,2013-02-21 17:00:00,
2013-02-21 10:15:00,22.7,21.0,29.82,WSW,257,8.0,15.0,93,0.00,,,0.00,weatherlink.com 1.10,2013-02-21 17:15:00,
2013-02-21 10:30:00,22.9,21.0,29.83,WNW,295,6.0,11.0,92,0.00,,,0.00,weatherlink.com 1.10,2013-02-21 17:30:00,
2013-02-21 10:45:00,23.5,22.0,29.83,WSW,249,3.0,10.0,93,0.00,,,0.00,weatherlink.com 1.10,2013-02-21 17:45:00,
2013-02-21 11:16:00,24.5,23.0,29.84,SSE,152,3.0,9.0,92,0.00,,,0.00,weatherlink.com 1.10,2013-02-21 18:16:00,
2013-02-21 11:31:00,25.2,23.0,29.83,West,262,3.0,9.0,91,0.00,,,0.00,weatherlink.com 1.10,2013-02-21 18:31:00,
2013-02-21 11:46:00,25.8,23.0,29.83,NNW,330,3.0,11.0,87,0.00,,,0.00,weatherlink.com 1.10,2013-02-21 18:46:00,
2013-02-21 12:01:00,25.7,23.0,29.83,NW,324,4.0,12.0,89,0.00,,,0.00,weatherlink.com 1.10,2013-02-21 19:01:00,
2013-02-21 12:16:00,25.1,23.0,29.82,West,274,5.0,11.0,90,0.00,,,0.00,weatherlink.com 1.10,2013-02-21 19:16:00,
2013-02-21 12:31:00,25.8,24.0,29.82,NW,315,5.0,9.0,91,0.00,,,0.00,weatherlink.com 1.10,2013-02-21 19:31:00,
2013-02-21 12:46:00,25.8,23.0,29.82,North,9,2.0,8.0,89,0.00,,,0.00,weatherlink.com 1.10,2013-02-21 19:46:00,
2013-02-21 13:01:00,25.8,23.0,29.81,WNW,295,6.0,9.0,89,0.00,,,0.00,weatherlink.com 1.10,2013-02-21 20:01:00,
2013-02-21 13:16:00,26.2,23.0,29.80,West,273,5.0,5.0,88,0.00,,,0.00,weatherlink.com 1.10,2013-02-21 20:16:00,
2013-02-21 13:31:00,26.9,24.0,29.80,NW,314,1.0,7.0,88,0.00,,,0.00,weatherlink.com 1.10,2013-02-21 20:31:00,
2013-02-21 13:46:00,28.0,25.0,29.80,West,266,2.0,6.0,87,0.00,,,0.00,weatherlink.com 1.10,2013-02-21 20:46:00,
2013-02-21 14:01:00,27.4,24.0,29.79,WSW,248,2.0,6.0,85,0.00,,,0.00,weatherlink.com 1.10,2013-02-21 21:01:00,
2013-02-21 14:16:00,26.8,23.0,29.79,WNW,295,0.0,5.0,86,0.00,,,0.00,weatherlink.com 1.10,2013-02-21 21:16:00,
2013-02-21 14:31:00,26.6,23.0,29.79,WNW,301,0.0,3.0,87,0.00,,,0.00,weatherlink.com 1.10,2013-02-21 21:31:00,
2013-02-21 14:46:00,26.4,24.0,29.78,West,266,2.0,4.0,89,0.00,,,0.00,weatherlink.com 1.10,2013-02-21 21:46:00,
2013-02-21 15:01:00,25.1,23.0,29.78,West,259,0.0,4.0,90,0.00,,,0.00,weatherlink.com 1.10,2013-02-21 22:01:00,
2013-02-21 15:16:00,25.4,23.0,29.78,WNW,284,1.0,4.0,91,0.00,,,0.00,weatherlink.com 1.10,2013-02-21 22:16:00,
2013-02-21 15:31:00,25.3,23.0,29.78,NNW,332,0.0,3.0,92,0.00,,,0.00,weatherlink.com 1.10,2013-02-21 22:31:00,
2013-02-21 15:46:00,25.1,23.0,29.78,West,262,0.0,2.0,91,0.00,,,0.00,weatherlink.com 1.10,2013-02-21 22:46:00,
2013-02-21 16:01:00,25.0,23.0,29.77,West,273,2.0,4.0,91,0.00,,,0.00,weatherlink.com 1.10,2013-02-21 23:01:00,
2013-02-21 16:16:00,24.4,22.0,29.77,West,260,1.0,4.0,92,0.00,,,0.00,weatherlink.com 1.10,2013-02-21 23:16:00,
2013-02-21 16:31:00,23.8,22.0,29.77,WNW,293,1.0,7.0,93,0.00,,,0.00,weatherlink.com 1.10,2013-02-21 23:31:00,
2013-02-21 16:46:00,23.8,22.0,29.77,West,277,1.0,5.0,94,0.00,,,0.00,weatherlink.com 1.10,2013-02-21 23:46:00,
2013-02-21 17:01:00,24.1,23.0,29.77,WNW,282,2.0,5.0,94,0.00,,,0.00,weatherlink.com 1.10,2013-02-22 00:01:00,
2013-02-21 17:16:00,24.0,23.0,29.77,NW,304,0.0,5.0,94,0.00,,,0.00,weatherlink.com 1.10,2013-02-22 00:16:00,
2013-02-21 17:31:00,23.9,23.0,29.77,WNW,283,0.0,3.0,94,0.00,,,0.00,weatherlink.com 1.10,2013-02-22 00:31:00,
2013-02-21 17:46:00,24.0,23.0,29.77,SW,233,0.0,2.0,95,0.00,,,0.00,weatherlink.com 1.10,2013-02-22 00:46:00,
2013-02-21 18:02:00,23.8,23.0,29.78,West,269,0.0,3.0,95,0.00,,,0.00,weatherlink.com 1.10,2013-02-22 01:02:00,
2013-02-21 18:17:00,23.6,22.0,29.78,WNW,290,0.0,0.0,95,0.00,,,0.00,weatherlink.com 1.10,2013-02-22 01:17:00,
2013-02-21 18:32:00,23.5,22.0,29.78,NNE,15,1.0,1.0,95,0.00,,,0.00,weatherlink.com 1.10,2013-02-22 01:32:00,
2013-02-21 18:47:00,23.3,22.0,29.79,NNE,12,0.0,1.0,94,0.00,,,0.00,weatherlink.com 1.10,2013-02-22 01:47:00,
2013-02-21 19:02:00,23.2,22.0,29.79,NNE,12,0.0,0.0,95,0.00,,,0.00,weatherlink.com 1.10,2013-02-22 02:02:00,
2013-02-21 19:17:00,22.9,22.0,29.79,East,83,1.0,1.0,94,0.00,,,0.00,weatherlink.com 1.10,2013-02-22 02:17:00,
2013-02-21 19:32:00,22.9,19.0,29.78,SW,217,2.0,3.0,86,0.00,,,0.00,weatherlink.com 1.10,2013-02-22 02:32:00,
2013-02-21 19:47:00,23.0,19.0,29.79,SE,140,0.0,1.0,86,0.00,,,0.00,weatherlink.com 1.10,2013-02-22 02:47:00,
2013-02-21 20:02:00,22.8,20.0,29.79,WSW,242,0.0,2.0,88,0.00,,,0.00,weatherlink.com 1.10,2013-02-22 03:02:00,
2013-02-21 20:17:00,23.0,19.0,29.79,SW,228,3.0,4.0,86,0.00,,,0.00,weatherlink.com 1.10,2013-02-22 03:17:00,
2013-02-21 20:32:00,23.4,19.0,29.79,SW,228,2.0,6.0,84,0.00,,,0.00,weatherlink.com 1.10,2013-02-22 03:32:00,
2013-02-21 20:47:00,23.6,20.0,29.80,SW,233,4.0,5.0,84,0.00,,,0.00,weatherlink.com 1.10,2013-02-22 03:47:00,
2013-02-21 21:02:00,23.8,20.0,29.80,SW,224,7.0,7.0,84,0.00,,,0.00,weatherlink.com 1.10,2013-02-22 04:02:00,
2013-02-21 21:17:00,24.3,20.0,29.80,SW,233,4.0,8.0,84,0.00,,,0.00,weatherlink.com 1.10,2013-02-22 04:17:00,
2013-02-21 21:32:00,24.3,21.0,29.80,WSW,252,3.0,7.0,86,0.00,,,0.00,weatherlink.com 1.10,2013-02-22 04:32:00,
2013-02-21 21:47:00,24.1,21.0,29.80,SW,233,5.0,9.0,86,0.00,,,0.00,weatherlink.com 1.10,2013-02-22 04:47:00,
2013-02-21 22:17:00,23.2,20.0,29.81,SSW,194,0.0,2.0,88,0.00,,,0.00,weatherlink.com 1.10,2013-02-22 05:17:00,
2013-02-21 22:32:00,23.1,20.0,29.80,SSW,194,0.0,1.0,89,0.00,,,0.00,weatherlink.com 1.10,2013-02-22 05:32:00,
2013-02-21 22:47:00,22.9,20.0,29.80,WSW,255,0.0,1.0,90,0.00,,,0.00,weatherlink.com 1.10,2013-02-22 05:47:00,
2013-02-21 23:02:00,22.5,20.0,29.80,WNW,283,1.0,1.0,91,0.00,,,0.00,weatherlink.com 1.10,2013-02-22 06:02:00,
2013-02-21 23:17:00,22.5,20.0,29.80,WNW,283,0.0,0.0,91,0.00,,,0.00,weatherlink.com 1.10,2013-02-22 06:17:00,
2013-02-21 23:32:00,22.8,21.0,29.80,West,271,1.0,2.0,91,0.00,,,0.00,weatherlink.com 1.10,2013-02-22 06:32:00,
2013-02-21 23:47:00,22.0,20.0,29.80,WSW,255,2.0,4.0,92,0.00,,,0.00,weatherlink.com 1.10,2013-02-22 06:47:00,